Weather in Kamyshevatskaya

Russia / Krasnodar Krai     46°24′42″N   37°57′19″E
temp.,
°C
wind,
m/s
gust,
m/s
humid.,
%
clouds,
%
prec.,
mm/h
press.,
hPa
HPBL,
m
12 august, fri
fri1200:00+26wnw2261100 0.1 100824
03:00+25ssw336964 0.3 100947
06:00+24se2379100 0.0 101184
09:00+26ese4562100 0.0 1011468
12:00+31se354180 0.0 10111664
15:00+32sw23387 0.0 10101743
18:00+32wnw32391 0.0 1010925
21:00+27ne45560 0.1 101086
13 august, sat
sat1300:00+25e513554 1.8 1011299
03:00+22ene486639 2.8 1010137
06:00+22e613565 0.1 1010286
09:00+29ese812350 0.1 1010756
12:00+34se810230 0.0 10091834
15:00+36ese68205 0.0 10072425
18:00+36e79185 0.0 10062738
21:00+32ene816254 0.0 1006616
14 august, sun
sun1400:00+30e917245 0.0 1005656
03:00+27e715290 0.0 1005421
06:00+26e715325 0.0 1006481
09:00+31e9132591 0.0 1006872
12:00+35ese79218 0.0 10052050
15:00+36se3620100 0.0 10042262
18:00+32wnw453573 0.0 1003179
21:00+27wsw334599 0.4 100524
15 august, mon
mon1500:00+28wnw334432 0.0 100430
03:00+25nne12560 0.0 100428
06:00+24ese59550 0.0 1005222
09:00+31ese79300 0.0 1005780
12:00+35sse57260 0.0 10051650
15:00+35w34275 0.0 1004991
18:00+33nw433425 0.1 1005425
21:00+27nw586160 0.8 1005176
16 august, tue
tue1600:00+26wnw796699 0.0 1005168
03:00+26nne346799 1.3 100687
06:00+22ne11783 1.0 100846
09:00+26nne45550 2.1 1008402
12:00+31w65410 0.0 1009937
15:00+30wsw66450 0.0 1010791
18:00+28wsw44550 0.0 1010432
21:00+25w35720 0.0 1010112